STARLINK BG (44289 NORAD) Tracking and Keplerian Element Data

This shows tracking and keplerian element data for the satellite.

Feedback or suggestion? Click here.




ElementValue
Catalog44289
NameSTARLINK BG
Epoch Orbit405
Epoch Day162.9630558
Epoch Year2019
RAAN87.7347
Inclination53.0041
Eccentricity0.0003119
Argument of Perigee105.4199
Mean Anonmoly254.7135
Mean Motion15.09402409
Decay Rate-0.00617827
L11 44289U 19029BG 19162.96305580 -.00617827 00000-0 -40631-1 0 9991
L22 44289 53.0041 87.7347 0003119 105.4199 254.7135 15.09402409 4051

Live tracking and technical data element details for STARLINK BG (NORAD 44289). STARLINK BG can be tracked NOW for your location showing map with azimuth and elevation plus other details from your city location.

Track the satellite on the map from your city or location and see movement details for azimuth, elevation, latitude, longitude, range, height, and movement on the map or in text.







IsCatalogInMostPopularTable: catalog: 44289, numindb: 55
Update: records affected: 1



GetName: 44289 STARLINK BG

Hit Count: updated at: Fri, 19 Jul 2019 22:54:43 GMT